EW6342 Weather Reports


Display with metric or nautical units.
time (UTC)temp
F
wind
direction
speed
MPH
gust
MPH
rain 1hr
in
rain 24hr
in
rain mn
in
humidity
%
barometer
mb
20260504081047 63 55 2.0 5.0 0.00 0.00 0.00 77 1015.2
20260504045556 65 55 3.0 9.0 0.00 0.00 0.00 73 1017.2
20260504044059 65 55 2.0 10.0 0.00 0.00 0.00 73 1017.3
20260504042616 65 55 2.0 6.0 0.00 0.00 0.00 72 1017.4
20260504041051 65 55 2.0 6.0 0.00 0.00 0.00 72 1017.5
20260504035555 65 55 2.0 7.0 0.00 0.00 0.00 72 1017.7
20260504034052 64 55 2.0 9.0 0.00 0.00 0.00 71 1017.5
20260504032609 64 55 1.0 2.0 0.00 0.00 0.00 69 1017.4
20260504031052 64 55 1.0 4.0 0.00 0.00 0.00 68 1017.3
20260504025531 65 55 0.0 1.0 0.00 0.00 0.00 66 1017.1
20260504024109 66 55 0.0 2.0 0.00 0.00 0.00 64 1016.9
20260504022547 66 55 0.0 1.0 0.00 0.00 0.00 64 1016.8
20260504021048 67 55 0.0 3.0 0.00 0.00 0.00 60 1016.6
20260504015549 68 55 0.0 1.0 0.00 0.00 0.00 59 1016.7
20260504014046 69 55 0.0 2.0 0.00 0.00 0.00 60 1016.7
20260504012546 70 55 0.0 2.0 0.00 0.00 0.00 55 1016.6
20260504011107 71 55 0.0 2.0 0.00 0.00 0.00 54 1016.5
20260504005543 72 55 0.0 3.0 0.00 0.00 0.00 55 1016.4
20260504004045 73 55 0.0 3.0 0.00 0.00 0.00 53 1016.5
20260504002546 74 55 0.0 2.0 0.00 0.00 0.00 52 1016.8
20260504001042 75 55 0.0 4.0 0.00 0.00 0.00 51 1016.9
20260503235545 75 55 0.0 7.0 0.00 0.00 0.00 49 1016.9
20260503234103 76 55 1.0 6.0 0.00 0.00 0.00 49 1016.9
20260503232600 76 55 1.0 10.0 0.00 0.00 0.00 48 1017.0
20260503231040 77 55 2.0 9.0 0.00 0.00 0.00 49 1017.1
20260503225621 77 55 3.0 9.0 0.00 0.00 0.00 47 1017.1
20260503224057 77 55 3.0 9.0 0.00 0.00 0.00 46 1017.3
20260503222557 78 55 2.0 7.0 0.00 0.00 0.00 47 1017.3
20260503221057 78 55 1.0 6.0 0.00 0.00 0.00 46 1017.6
20260503215601 79 55 3.0 9.0 0.00 0.00 0.00 46 1017.8
20260503214058 79 55 2.0 9.0 0.00 0.00 0.00 44 1018.0
20260503212558 79 55 3.0 11.0 0.00 0.00 0.00 44 1018.1
20260503211100 80 55 0.0 10.0 0.00 0.00 0.00 45 1018.2
20260503205557 80 55 2.0 4.0 0.00 0.00 0.00 43 1018.7
20260503204054 80 55 2.0 7.0 0.00 0.00 0.00 44 1018.9
20260503202558 80 55 1.0 5.0 0.00 0.00 0.00 43 1019.2
20260503201057 81 55 2.0 9.0 0.00 0.00 0.00 44 1019.4
20260503195553 81 55 3.0 9.0 0.00 0.00 0.00 42 1019.6
20260503194117 81 55 2.0 5.0 0.00 0.00 0.00 45 1019.8
20260503192610 80 55 2.0 9.0 0.00 0.00 0.00 48 1020.2
20260503191046 79 55 1.0 9.0 0.00 0.00 0.00 49 1020.3
20260503185549 79 55 7.0 14.0 0.00 0.00 0.00 45 1020.5
20260503184028 79 55 3.0 10.0 0.00 0.00 0.00 47 1020.7
20260503182606 78 55 3.0 11.0 0.00 0.00 0.00 50 1020.9
20260503181123 78 55 1.0 9.0 0.00 0.00 0.00 49 1021.1
20260503175601 78 55 2.0 10.0 0.00 0.00 0.00 52 1021.4